DT_LEITURA;HR_LEITURA;MED-PressaoAtm[hPa];VAL-TempExt[oC];VAL-UmidExt[%UR];VAL-TempInt[oC];VAL-UmidInt[%UR];Dir-Vento[grau];Vel-Vento[m/s];Precipitação[mm/h]
29/08/2026;00:00:00;1011,3;-36,3;1;28,5;74;145;1,2;0,0
29/08/2026;00:05:00;1011,3;-36,4;1;28,5;74;139;1,3;0,0
29/08/2026;00:10:00;1011,2;-36,4;1;28,5;74;129;1,6;0,0
29/08/2026;00:15:00;1011,1;-36,4;1;28,5;74;123;1,4;0,0
29/08/2026;00:20:00;1011,1;-36,5;0;28,5;74;143;1,4;0,0
29/08/2026;00:25:00;1011,1;-36,5;0;28,5;75;136;1,7;0,0
29/08/2026;00:30:00;1011,1;-36,5;0;28,4;74;136;1,6;0,0
29/08/2026;00:35:00;1011,1;-36,5;0;28,4;74;131;1,3;0,0
29/08/2026;00:40:00;1011,0;-36,5;0;28,4;74;131;1,6;0,0
29/08/2026;00:45:00;1011,0;-36,5;0;28,4;75;124;1,6;0,0
29/08/2026;00:50:00;1011,0;-36,5;0;28,4;74;127;1,5;0,0
29/08/2026;00:55:00;1010,9;-36,5;0;28,4;74;130;1,5;0,0
29/08/2026;01:00:00;1010,9;-36,5;0;28,4;74;128;1,5;0,0
29/08/2026;01:05:00;1010,8;-36,5;0;28,4;74;138;1,3;0,0
29/08/2026;01:10:00;1010,8;-36,5;0;28,4;75;140;1,5;0,0
29/08/2026;01:15:00;1010,7;-36,5;0;28,4;75;130;1,4;0,0
29/08/2026;01:20:00;1010,7;-36,5;0;28,3;75;130;2,0;0,0
29/08/2026;01:25:00;1010,6;-36,5;0;28,3;74;137;2,1;0,0
29/08/2026;01:30:00;1010,5;-36,5;0;28,3;74;136;1,8;0,0
29/08/2026;01:35:00;1010,5;-36,5;0;28,3;74;132;2,0;0,0
29/08/2026;01:40:00;1010,4;-36,6;0;28,3;74;130;2,0;0,0
29/08/2026;01:45:00;1010,3;-36,5;0;28,2;74;130;1,7;0,0
29/08/2026;01:50:00;1010,3;-36,5;0;28,2;75;134;2,0;0,0
29/08/2026;01:55:00;1010,3;-36,5;0;28,2;75;137;1,3;0,0
29/08/2026;02:00:00;1010,2;-36,5;0;28,2;75;132;1,8;0,0
29/08/2026;02:05:00;1010,2;-36,6;0;28,2;75;135;1,9;0,0
29/08/2026;02:10:00;1010,1;-36,6;0;28,2;75;129;2,1;0,0
29/08/2026;02:15:00;1010,0;-36,6;0;28,2;75;137;2,1;0,0
29/08/2026;02:20:00;1010,0;-36,6;0;28,1;75;141;1,9;0,0
29/08/2026;02:25:00;1009,9;-36,5;0;28,1;75;135;1,9;0,0
29/08/2026;02:30:00;1009,9;-36,6;0;28,1;75;127;1,8;0,0
29/08/2026;02:35:00;1009,8;-36,6;0;28,1;75;125;1,9;0,0
29/08/2026;02:40:00;1009,8;-36,6;0;28,0;75;138;1,5;0,0
29/08/2026;02:45:00;1009,7;-36,6;0;28,0;75;132;1,7;0,0
29/08/2026;02:50:00;1009,7;-36,6;0;28,0;75;145;1,5;0,0
29/08/2026;02:55:00;1009,6;-36,6;0;27,9;75;139;1,3;0,0
29/08/2026;03:00:00;1009,6;-36,6;0;27,9;74;141;1,5;0,0
29/08/2026;03:05:00;1009,6;-36,6;0;27,9;74;140;1,4;0,0
29/08/2026;03:10:00;1009,5;-36,6;0;27,9;74;139;1,5;0,0
29/08/2026;03:15:00;1009,5;-36,6;0;27,9;74;146;1,2;0,0
29/08/2026;03:20:00;1009,5;-36,6;0;27,8;74;143;1,1;0,0
29/08/2026;03:25:00;1009,6;-36,6;0;27,8;74;137;1,2;0,0
29/08/2026;03:30:00;1009,5;-36,6;0;27,8;75;150;1,3;0,0
29/08/2026;03:35:00;1009,5;-36,6;0;27,8;75;140;1,2;0,0
29/08/2026;03:40:00;1009,5;-36,6;0;27,8;75;135;1,1;0,0
29/08/2026;03:45:00;1009,5;-36,6;0;27,8;75;132;1,8;0,0
29/08/2026;03:50:00;1009,5;-36,6;0;27,8;75;137;1,3;0,0
29/08/2026;03:55:00;1009,5;-36,6;0;27,8;75;138;1,2;0,0
29/08/2026;04:00:00;1009,4;-36,6;0;27,7;75;133;1,2;0,0
29/08/2026;04:05:00;1009,4;-36,6;0;27,7;75;134;1,8;0,0
29/08/2026;04:10:00;1009,5;-36,6;0;27,7;75;140;1,6;0,0
29/08/2026;04:15:00;1009,5;-36,6;0;27,7;74;144;1,0;0,0
29/08/2026;04:20:00;1009,5;-36,6;0;27,7;74;154;1,0;0,0
29/08/2026;04:25:00;1009,5;-36,6;0;27,7;74;148;1,3;0,0
29/08/2026;04:30:00;1009,5;-36,6;0;27,7;74;139;1,2;0,0
29/08/2026;04:35:00;1009,5;-36,6;0;27,7;74;137;1,3;0,0
29/08/2026;04:40:00;1009,5;-36,6;0;27,7;75;146;1,2;0,0
29/08/2026;04:45:00;1009,5;-36,6;0;27,7;75;150;1,2;0,0
29/08/2026;04:50:00;1009,5;-36,6;0;27,6;75;151;1,2;0,0
29/08/2026;04:55:00;1009,6;-36,6;0;27,6;75;148;1,0;0,0
29/08/2026;05:00:00;1009,7;-36,6;0;27,6;75;139;1,0;0,0
29/08/2026;05:05:00;1009,7;-36,6;0;27,6;75;139;1,1;0,0
29/08/2026;05:10:00;1009,8;-36,7;0;27,6;75;147;1,1;0,0
29/08/2026;05:15:00;1009,8;-36,7;0;27,6;76;156;1,1;0,0
29/08/2026;05:20:00;1009,9;-36,7;0;27,6;76;143;1,3;0,0
29/08/2026;05:25:00;1009,9;-36,7;0;27,6;76;140;1,1;0,0
29/08/2026;05:30:00;1010,0;-36,7;0;27,6;76;144;1,2;0,0
29/08/2026;05:35:00;1010,0;-36,7;0;27,5;76;147;1,2;0,0
29/08/2026;05:40:00;1010,1;-36,7;0;27,5;76;147;1,1;0,0
29/08/2026;05:45:00;1010,2;-36,7;0;27,5;76;151;1,2;0,0
29/08/2026;05:50:00;1010,2;-36,7;0;27,5;76;151;1,1;0,0
29/08/2026;05:55:00;1010,2;-36,7;0;27,5;76;139;1,1;0,0
29/08/2026;06:00:00;1010,2;-36,7;0;27,5;76;146;0,8;0,0
29/08/2026;06:05:00;1010,3;-36,7;0;27,6;76;144;1,2;0,0
29/08/2026;06:10:00;1010,3;-36,7;0;27,5;75;140;1,2;0,0
29/08/2026;06:15:00;1010,3;-36,7;0;27,6;75;159;1,0;0,0
29/08/2026;06:20:00;1010,4;-36,7;0;27,6;75;135;1,2;0,0
29/08/2026;06:25:00;1010,5;-36,7;0;27,6;75;142;1,0;0,0
29/08/2026;06:30:00;1010,6;-36,7;0;27,6;75;149;0,9;0,0
29/08/2026;06:35:00;1010,6;-36,7;0;27,6;75;149;1,0;0,0
29/08/2026;06:40:00;1010,6;-36,7;0;27,6;75;124;1,4;0,0
29/08/2026;06:45:00;1010,7;-36,7;0;27,6;76;129;1,5;0,0
29/08/2026;06:50:00;1010,8;-36,7;0;27,7;76;132;1,6;0,0
29/08/2026;06:55:00;1010,8;-36,7;0;27,7;76;128;1,7;0,0
29/08/2026;07:00:00;1010,8;-36,7;0;27,8;76;135;2,1;0,0
29/08/2026;07:05:00;1010,8;-36,7;0;27,8;75;122;1,8;0,0
29/08/2026;07:10:00;1010,9;-36,6;0;27,8;76;133;1,9;0,0
29/08/2026;07:15:00;1011,0;-36,6;0;27,9;76;131;2,2;0,0
29/08/2026;07:20:00;1011,0;-36,6;0;27,9;76;134;2,0;0,0
29/08/2026;07:25:00;1011,0;-36,6;0;28,0;76;126;2,1;0,0
29/08/2026;07:30:00;1011,1;-36,6;0;28,0;75;135;2,0;0,0
29/08/2026;07:35:00;1011,1;-36,6;0;28,1;75;130;2,1;0,0
29/08/2026;07:40:00;1011,2;-36,6;0;28,2;75;134;1,9;0,0
29/08/2026;07:45:00;1011,2;-36,5;0;28,2;75;128;2,1;0,0
29/08/2026;07:50:00;1011,3;-36,5;0;28,3;74;127;2,3;0,0
29/08/2026;07:55:00;1011,4;-36,5;0;28,4;73;135;2,4;0,0
29/08/2026;08:00:00;1011,5;-36,5;0;28,4;72;132;1,7;0,0
29/08/2026;08:05:00;1011,6;-36,4;0;28,5;72;130;2,3;0,0
29/08/2026;08:10:00;1011,6;-36,4;0;28,6;71;130;2,4;0,0
29/08/2026;08:15:00;1011,7;-36,3;0;28,7;71;140;2,0;0,0
29/08/2026;08:20:00;1011,8;-36,3;0;28,8;70;126;2,6;0,0
29/08/2026;08:25:00;1011,9;-36,2;0;28,8;70;130;2,7;0,0
29/08/2026;08:30:00;1012,0;-36,1;0;28,9;70;133;2,3;0,0
29/08/2026;08:35:00;1012,0;-36,1;0;29,0;70;133;1,9;0,0
29/08/2026;08:40:00;1012,1;-36,0;0;29,2;71;143;1,7;0,0
29/08/2026;08:45:00;1012,1;-35,8;0;29,4;70;131;1,7;0,0
29/08/2026;08:50:00;1012,2;-35,6;0;29,5;69;132;1,8;0,0
29/08/2026;08:55:00;1012,2;-35,4;0;29,6;69;151;1,8;0,0
29/08/2026;09:00:00;1012,3;-35,2;0;29,7;69;145;2,1;0,0
29/08/2026;09:05:00;1012,4;-35,0;0;29,8;68;155;1,6;0,0
29/08/2026;09:10:00;1012,5;-34,7;0;29,9;68;143;2,3;0,0
29/08/2026;09:15:00;1012,5;-34,1;0;30,1;67;132;2,1;0,0
29/08/2026;09:20:00;1012,5;-33,8;0;30,4;67;133;2,2;0,0
29/08/2026;09:25:00;1012,6;-34,2;0;30,1;73;132;3,0;0,0
29/08/2026;09:30:00;1012,7;-34,8;0;29,7;74;140;2,9;0,0
29/08/2026;09:35:00;1012,7;-35,0;0;29,6;76;149;1,6;0,0
29/08/2026;09:40:00;1012,7;-34,6;0;30,0;74;140;2,1;0,0
29/08/2026;09:45:00;1012,8;-33,5;0;30,5;71;137;2,7;0,0
29/08/2026;09:50:00;1012,8;-33,6;0;31,1;67;142;2,0;0,0
29/08/2026;09:55:00;1012,8;-35,1;0;31,7;62;138;2,5;0,0
29/08/2026;10:00:00;1012,8;-37,0;0;32,1;58;141;2,4;0,0
29/08/2026;10:05:00;1012,9;-38,2;0;32,5;58;148;2,2;0,0
29/08/2026;10:10:00;1012,9;-38,8;0;32,9;56;148;2,3;0,0
29/08/2026;10:15:00;1012,9;-38,9;0;33,3;55;143;1,8;0,0
29/08/2026;10:20:00;1012,8;-39,1;0;33,6;54;147;1,7;0,0
29/08/2026;10:25:00;1012,9;-39,2;0;33,6;53;153;1,8;0,0
29/08/2026;10:30:00;1012,8;-39,2;0;33,4;54;140;2,3;0,0
29/08/2026;10:35:00;1012,8;-39,2;0;33,2;55;144;1,5;0,0
29/08/2026;10:40:00;1012,8;-39,2;0;33,3;54;136;2,1;0,0
29/08/2026;10:45:00;1012,8;-39,2;0;33,6;54;148;1,6;0,0
29/08/2026;10:50:00;1012,7;-39,2;0;33,7;54;169;1,9;0,0
29/08/2026;10:55:00;1012,8;-39,3;0;33,9;53;136;2,5;0,0
29/08/2026;11:00:00;1012,7;-39,2;0;34,1;50;154;2,4;0,0
29/08/2026;11:05:00;1012,7;-39,3;0;34,2;51;162;1,6;0,0
29/08/2026;11:10:00;1012,7;-39,3;0;34,4;52;139;1,5;0,0
29/08/2026;11:15:00;1012,7;-39,3;0;34,7;50;169;1,9;0,0
29/08/2026;11:20:00;1012,7;-39,3;0;34,9;49;176;2,0;0,0
29/08/2026;11:25:00;1012,6;-39,4;0;35,0;48;163;1,8;0,0
29/08/2026;11:30:00;1012,6;-39,4;0;35,0;49;162;1,8;0,0
29/08/2026;11:35:00;1012,5;-39,4;0;34,9;49;176;1,5;0,0
29/08/2026;11:40:00;1012,5;-39,4;0;35,1;48;142;2,4;0,0
29/08/2026;11:45:00;1012,5;-39,3;0;35,0;47;138;2,5;0,0
29/08/2026;11:50:00;1012,4;-39,3;0;34,8;49;170;1,8;0,0
29/08/2026;11:55:00;1012,4;-39,3;0;34,7;50;157;1,8;0,0
29/08/2026;12:00:00;1012,4;-39,2;0;34,7;49;148;2,2;0,0
29/08/2026;12:05:00;1012,4;-39,2;0;35,0;48;141;2,6;0,0
29/08/2026;12:10:00;1012,3;-39,2;0;35,2;48;138;1,9;0,0
29/08/2026;12:15:00;1012,2;-39,2;0;35,4;48;149;1,6;0,0
29/08/2026;12:20:00;1012,2;-39,2;0;35,6;48;153;2,1;0,0
29/08/2026;12:25:00;1012,1;-39,2;0;35,8;47;147;1,9;0,0
29/08/2026;12:30:00;1012,1;-39,1;0;36,0;47;144;1,9;0,0
29/08/2026;12:35:00;1012,0;-39,2;0;36,3;46;142;1,8;0,0
29/08/2026;12:40:00;1011,9;-39,2;0;36,3;46;152;1,7;0,0
29/08/2026;12:45:00;1011,8;-39,3;0;36,2;47;151;1,8;0,0
29/08/2026;12:50:00;1011,7;-39,3;0;36,2;46;152;2,1;0,0
29/08/2026;12:55:00;1011,5;-39,3;0;36,3;46;143;0,9;0,0
29/08/2026;13:00:00;1011,5;-39,2;0;36,3;46;147;2,2;0,0
29/08/2026;13:05:00;1011,4;-39,3;0;36,5;46;138;2,1;0,0
29/08/2026;13:10:00;1011,3;-39,3;0;36,5;45;152;2,3;0,0
29/08/2026;13:15:00;1011,2;-39,3;0;36,6;45;139;2,2;0,0
29/08/2026;13:20:00;1011,0;-39,3;0;36,7;44;140;1,9;0,0
29/08/2026;13:25:00;1010,9;-39,3;0;36,8;43;143;2,0;0,0
29/08/2026;13:30:00;1010,9;-39,3;0;37,1;44;142;1,9;0,0
29/08/2026;13:35:00;1010,8;-39,3;0;37,3;42;123;2,3;0,0
29/08/2026;13:40:00;1010,8;-39,3;0;37,5;41;155;1,5;0,0
29/08/2026;13:45:00;1010,8;-39,3;0;37,7;41;152;1,5;0,0
29/08/2026;13:50:00;1010,7;-39,3;0;37,9;41;140;1,7;0,0
29/08/2026;13:55:00;1010,7;-39,3;0;38,1;42;157;1,3;0,0
29/08/2026;14:00:00;1010,6;-39,3;0;38,3;41;163;1,2;0,0
29/08/2026;14:05:00;1010,6;-39,3;0;38,5;40;140;1,8;0,0
29/08/2026;14:10:00;1010,5;-39,3;0;38,3;40;142;1,7;0,0
29/08/2026;14:15:00;1010,3;-39,3;0;38,3;41;152;1,8;0,0
29/08/2026;14:20:00;1010,2;-39,3;0;38,2;41;169;1,1;0,0
29/08/2026;14:25:00;1010,1;-39,3;0;38,4;40;145;2,1;0,0
29/08/2026;14:30:00;1010,0;-39,3;0;38,6;40;129;1,4;0,0
29/08/2026;14:35:00;1010,0;-39,3;0;38,9;39;153;1,9;0,0
29/08/2026;14:40:00;1010,0;-39,3;0;39,0;39;155;1,0;0,0
29/08/2026;14:45:00;1010,0;-39,3;0;39,1;39;162;1,2;0,0
29/08/2026;14:50:00;1009,9;-39,3;0;39,3;38;171;1,4;0,0
29/08/2026;14:55:00;1009,8;-39,3;0;39,5;38;106;1,3;0,0
29/08/2026;15:00:00;1009,8;-39,3;0;39,5;38;139;1,8;0,0
29/08/2026;15:05:00;1009,7;-39,3;0;39,6;38;154;1,6;0,0
29/08/2026;15:10:00;1009,7;-39,3;0;39,6;37;150;2,2;0,0
29/08/2026;15:15:00;1009,5;-39,3;0;39,4;38;156;1,9;0,0
29/08/2026;15:20:00;1009,6;-39,3;0;39,2;37;136;2,1;0,0
29/08/2026;15:25:00;1009,5;-39,3;0;39,0;37;134;2,0;0,0
29/08/2026;15:30:00;1009,5;-39,3;0;38,9;38;131;2,1;0,0
29/08/2026;15:35:00;1009,4;-39,3;0;38,9;39;131;1,4;0,0
29/08/2026;15:40:00;1009,4;-39,3;0;38,9;39;138;1,7;0,0
29/08/2026;15:45:00;1009,4;-39,3;0;39,0;38;139;1,6;0,0
29/08/2026;15:50:00;1009,3;-39,3;0;38,9;38;150;1,7;0,0
29/08/2026;15:55:00;1009,3;-39,3;0;38,8;39;140;1,7;0,0
29/08/2026;16:00:00;1009,3;-39,3;0;38,7;39;140;1,7;0,0
29/08/2026;16:05:00;1009,3;-39,3;0;38,4;39;133;1,7;0,0
29/08/2026;16:10:00;1009,3;-39,3;3;38,3;40;138;1,6;0,0
29/08/2026;16:15:00;1009,2;-39,3;3;38,1;41;149;1,6;0,0
29/08/2026;16:20:00;1009,2;-39,3;3;37,7;41;154;1,6;0,0
29/08/2026;16:25:00;1009,2;-39,3;3;37,1;42;163;1,5;0,0
29/08/2026;16:30:00;1009,2;-39,3;3;36,6;44;139;1,5;0,0
29/08/2026;16:35:00;1009,2;-39,3;3;36,1;46;159;1,4;0,0
29/08/2026;16:40:00;1009,2;-39,3;3;35,6;47;143;2,0;0,0
29/08/2026;16:45:00;1009,2;-39,2;3;35,1;47;163;1,6;0,0
29/08/2026;16:50:00;1009,1;-39,2;3;34,6;49;153;1,3;0,0
29/08/2026;16:55:00;1009,2;-39,2;3;34,3;50;161;1,0;0,0
29/08/2026;17:00:00;1009,1;-39,1;3;34,2;50;162;1,5;0,0
29/08/2026;17:05:00;1009,1;-39,1;3;34,1;51;185;0,8;0,0
29/08/2026;17:10:00;1009,1;-39,1;3;33,9;51;142;1,6;0,0
29/08/2026;17:15:00;1009,2;-39,1;3;33,8;51;154;1,4;0,0
29/08/2026;17:20:00;1009,2;-39,1;3;33,6;52;147;1,5;0,0
29/08/2026;17:25:00;1009,2;-39,0;3;33,5;52;133;1,4;0,0
29/08/2026;17:30:00;1009,3;-39,0;3;33,4;52;140;1,6;0,0
29/08/2026;17:35:00;1009,3;-39,0;3;33,2;51;138;1,5;0,0
29/08/2026;17:40:00;1009,3;-39,0;3;33,1;52;146;1,5;0,0
29/08/2026;17:45:00;1009,4;-38,9;3;32,9;53;147;1,6;0,0
29/08/2026;17:50:00;1009,4;-38,9;3;32,7;53;150;1,0;0,0
29/08/2026;17:55:00;1009,5;-38,9;3;32,6;54;163;1,4;0,0
29/08/2026;18:00:00;1009,6;-38,8;3;32,5;54;184;1,1;0,0
29/08/2026;18:05:00;1009,6;-38,8;4;32,4;55;171;0,9;0,0
29/08/2026;18:10:00;1009,6;-38,7;4;32,3;55;170;1,2;0,0
29/08/2026;18:15:00;1009,7;-38,7;4;32,1;55;148;1,3;0,0
29/08/2026;18:20:00;1009,8;-38,6;4;32,1;56;161;1,2;0,0
29/08/2026;18:25:00;1009,8;-38,5;4;32,0;56;151;1,6;0,0
29/08/2026;18:30:00;1009,9;-38,5;4;31,9;56;164;1,3;0,0
29/08/2026;18:35:00;1010,0;-38,4;4;31,8;56;157;1,2;0,0
29/08/2026;18:40:00;1010,1;-38,4;4;31,8;56;166;1,2;0,0
29/08/2026;18:45:00;1010,1;-38,3;4;31,6;57;160;0,9;0,0
29/08/2026;18:50:00;1010,2;-38,1;4;31,6;58;174;0,9;0,0
29/08/2026;18:55:00;1010,2;-38,0;4;31,5;58;158;0,8;0,0
29/08/2026;19:00:00;1010,3;-38,0;4;31,4;58;171;1,0;0,0
29/08/2026;19:05:00;1010,3;-37,9;4;31,3;58;184;0,8;0,0
29/08/2026;19:10:00;1010,4;-37,9;4;31,3;58;245;0,6;0,0
29/08/2026;19:15:00;1010,4;-37,8;4;31,3;59;212;0,6;0,0
29/08/2026;19:20:00;1010,5;-37,8;4;31,3;59;169;0,9;0,0
29/08/2026;19:25:00;1010,5;-37,6;4;31,3;59;172;1,1;0,0
29/08/2026;19:30:00;1010,6;-37,6;4;31,1;59;157;1,0;0,0
29/08/2026;19:35:00;1010,6;-37,5;4;31,0;59;172;1,2;0,0
29/08/2026;19:40:00;1010,6;-37,3;4;30,9;60;195;0,9;0,0
29/08/2026;19:45:00;1010,6;-37,2;4;30,9;61;173;0,6;0,0
29/08/2026;19:50:00;1010,6;-37,0;4;30,8;61;193;0,5;0,0
29/08/2026;19:55:00;1010,7;-36,9;4;30,8;60;192;0,7;0,0
29/08/2026;20:00:00;1010,7;-36,8;4;30,7;60;201;0,5;0,0
29/08/2026;20:05:00;1010,8;-36,6;4;30,7;60;195;0,5;0,0
29/08/2026;20:10:00;1010,9;-36,4;4;30,6;60;164;1,1;0,0
29/08/2026;20:15:00;1010,9;-36,4;4;30,5;61;164;1,0;0,0
29/08/2026;20:20:00;1011,0;-36,3;4;30,5;62;171;0,7;0,0
29/08/2026;20:25:00;1011,0;-36,2;4;30,4;62;302;0,4;0,0
29/08/2026;20:30:00;1011,1;-36,2;4;30,4;62;112;0,4;0,0
29/08/2026;20:35:00;1011,1;-36,1;4;30,4;62;173;0,7;0,0
29/08/2026;20:40:00;1011,2;-36,0;4;30,3;63;167;0,8;0,0
29/08/2026;20:45:00;1011,2;-36,0;4;30,3;63;173;0,8;0,0
29/08/2026;20:50:00;1011,3;-35,9;4;30,2;64;192;0,7;0,0
29/08/2026;20:55:00;1011,3;-35,9;4;30,1;64;174;0,7;0,0
29/08/2026;21:00:00;1011,4;-35,9;4;30,1;64;186;0,6;0,0
29/08/2026;21:05:00;1011,4;-35,8;4;30,0;65;223;0,3;0,0
29/08/2026;21:10:00;1011,4;-35,7;4;30,0;64;195;0,4;0,0
29/08/2026;21:15:00;1011,4;-35,6;4;30,0;65;214;0,4;0,0
29/08/2026;21:20:00;1011,5;-35,6;4;30,0;65;178;0,7;0,0
29/08/2026;21:25:00;1011,6;-35,5;4;30,0;65;194;0,5;0,0
29/08/2026;21:30:00;1011,7;-35,5;4;29,9;65;154;1,3;0,0
29/08/2026;21:35:00;1011,7;-35,5;4;29,9;66;159;1,1;0,0
29/08/2026;21:40:00;1011,7;-35,5;4;29,8;66;150;1,3;0,0
29/08/2026;21:45:00;1011,7;-35,6;4;29,7;66;170;1,1;0,0
29/08/2026;21:50:00;1011,8;-35,6;4;29,7;66;162;1,3;0,0
29/08/2026;21:55:00;1011,8;-35,6;4;29,6;66;183;1,0;0,0
29/08/2026;22:00:00;1011,8;-35,7;4;29,6;66;168;1,1;0,0
29/08/2026;22:05:00;1011,8;-35,7;4;29,5;66;151;1,3;0,0
29/08/2026;22:10:00;1011,8;-35,7;4;29,5;66;166;1,0;0,0
29/08/2026;22:15:00;1011,9;-35,7;4;29,5;66;170;0,8;0,0
29/08/2026;22:20:00;1011,9;-35,7;4;29,4;67;178;1,1;0,0
29/08/2026;22:25:00;1012,0;-35,8;4;29,4;67;181;1,0;0,0
29/08/2026;22:30:00;1012,1;-35,8;4;29,3;67;172;0,9;0,0
29/08/2026;22:35:00;1012,2;-35,8;4;29,3;67;163;0,5;0,0
29/08/2026;22:40:00;1012,2;-35,8;4;29,2;67;114;0,3;0,0
29/08/2026;22:45:00;1012,2;-35,8;4;29,2;67;326;0,4;0,0
29/08/2026;22:50:00;1012,2;-35,8;4;29,2;67;310;0,4;0,0
29/08/2026;22:55:00;1012,2;-35,9;4;29,2;68;303;0,5;0,0
29/08/2026;23:00:00;1012,3;-35,9;4;29,2;68;294;0,3;0,0
29/08/2026;23:05:00;1012,3;-35,9;4;29,1;68;1;0,4;0,0
29/08/2026;23:10:00;1012,2;-35,9;4;29,1;68;315;0,4;0,0
29/08/2026;23:15:00;1012,2;-35,9;4;29,0;68;339;0,5;0,0
29/08/2026;23:20:00;1012,2;-36,0;4;29,0;69;271;0,3;0,0
29/08/2026;23:25:00;1012,1;-36,0;4;29,0;69;218;0,4;0,0
29/08/2026;23:30:00;1012,1;-36,0;4;28,9;69;291;0,5;0,0
29/08/2026;23:35:00;1012,1;-36,0;4;28,9;69;18;0,4;0,0
29/08/2026;23:40:00;1012,1;-36,0;4;28,9;69;4;0,4;0,0
29/08/2026;23:45:00;1012,1;-36,0;4;28,8;69;356;0,5;0,0
29/08/2026;23:50:00;1012,0;-36,0;4;28,8;70;333;0,5;0,0
29/08/2026;23:55:00;1011,9;-36,0;4;28,8;70;338;0,4;0,0
